Regional Weather Roundup
Issued by NWS

Home | Current Version | Previous Version | Text Only | Print | Product List | Glossary Off
Versions: 1 2 3 4 5 6 7 8 9 10 11 12 13 14 15 16 17 18 19 20 21 22 23 24 25 26 27 28 29 30 31 32 33 34 35 36 37 38 39 40 41 42 43 44 45 46 47 48 49 50

000
ASUS43 KLOT 260606
RWRIL

ILLINOIS REGIONAL WEATHER ROUNDUP
NATIONAL WEATHER SERVICE CHICAGO/ROMEOVILLE IL
1200 AM CST WED NOV 26 2014

NOTE: "FAIR" INDICATES FEW OR NO CLOUDS BELOW 12,000 FEET WITH NO
SIGNIFICANT WEATHER AND/OR OBSTRUCTIONS TO VISIBILITY.

* THESE STATIONS ARE NOT UNDER NWS QUALITY CONTROL. THEY ALSO MAY NOT
  REPORT WEATHER SUCH AS PRECIPITATION OR FOG.

ILZ001-002-007-009-015-016-024-260700-
NORTHWEST ILLINOIS

CITY           SKY/WX    TMP DP  RH WIND       PRES   REMARKS
MOLINE         CLEAR     14  11  87 E7        30.14F WCI   4
6HR MIN TEMP:  11; 6HR MAX TEMP:  21;

STERLING*      CLEAR     10   7  85 CALM      30.16F
SAVANNA*       CLEAR     11   8  87 NE3       30.16S
$$

ILZ003-004-008-010-011-017-018-260700-
NORTH CENTRAL ILLINOIS

CITY           SKY/WX    TMP DP  RH WIND       PRES   REMARKS
ROCKFORD       CLEAR     10   7  87 CALM      30.20R
6HR MIN TEMP:  10; 6HR MAX TEMP:  18;

FREEPORT*      CLEAR      9   7  91 CALM      30.18S
ROCHELLE*      CLEAR     10   8  91 CALM      30.18S
DE KALB*       CLEAR     12  10  89 S3        30.17S FOG
PERU*          CLEAR     20  18  92 S3        30.19S
$$

ILZ005-006-012>014-019>023-260700-
NORTHEAST ILLINOIS

CITY           SKY/WX    TMP DP  RH WIND       PRES   REMARKS
CHICAGO-OHARE  MOCLDY    20  16  84 S7        30.18F WCI  11
6HR MIN TEMP:  18; 6HR MAX TEMP:  21;

CHICAGO-MIDWAY CLOUDY    24  18  77 SW7       30.19S WCI  16
6HR MIN TEMP:  22; 6HR MAX TEMP:  25;

AURORA         CLEAR     15  11  83 SE3       30.18S FOG
6HR MIN TEMP:  12; 6HR MAX TEMP:  18;

LANSING*       CLOUDY    23  19  85 SW6       30.19F WCI  16
JOLIET*        MOCLDY    20  17  88 CALM      30.19F
WAUKEGAN       CLEAR     13  11  92 CALM      30.18S
6HR MIN TEMP:  13; 6HR MAX TEMP:  21;

DUPAGE AIRPORT MOCLDY    17  14  88 S5        30.17F FOG     WCI  10
6HR MIN TEMP:  14; 6HR MAX TEMP:  19;

KANKAKEE*      PTCLDY   N/A N/A N/A SE3       30.19F
WHEELING       CLEAR     18  14  84 S3        30.20F
6HR MIN TEMP:  18; 6HR MAX TEMP:  22;

MORRIS*        CLEAR     19  18  97 SE3       30.18F FOG
NORTHERLY ISL    N/A     23  18  81 S3          N/A
$$

LMZ740>746-260700-
SOUTHERN LAKE MICHIGAN

STATION/POSITION SKY/WX   TEMP    WIND        PRES    VSBY  WAVE
                          AIR SEA DIR/SP/G                  HT/PER
                          (F)     (DEG/KT/KT) (MB)    (MI)  (FT/S)
SOUTHERN BUOY              28 42  200/ 12/ 17 1022.7F         2/ 6
WAUKEGAN HARBOR            21     220/  6/  9   N/A
HARRISON CRIB              22     180/  9/ 12   N/A
BURNHAM HARBOR             23     210/  6/  9   N/A
CALUMET HARBOR             23     200/  3/  7 1021.1F
MICHIGAN CITY              23     170/  7/  8   N/A
$$

ILZ025>027-034>036-040-047-049-050-058-095>099-260700-
WEST-CENTRAL ILLINOIS

CITY           SKY/WX    TMP DP  RH WIND       PRES   REMARKS
QUINCY         CLEAR     24  20  84 SE7       30.11F WCI  16
GALESBURG*     CLEAR     19  18  95 E5        30.13F WCI  12
MACOMB*        CLEAR     22  21  96 E5        30.15F WCI  16
JACKSONVILLE*  FAIR      27  23  84 SE5       30.14F WCI  22
PITTSFIELD*    CLEAR     28  24  84 SE5       30.13F WCI  23
$$

ILZ028>032-037-038-041>044-048-051>054-059>061-260700-
CENTRAL ILLINOIS

CITY           SKY/WX    TMP DP  RH WIND       PRES   REMARKS
PONTIAC        CLEAR     20  18  92 SE3       30.18F
BLOOMINGTON    CLEAR     21  20  96 S6        30.17S WCI  13
DECATUR        CLEAR     23  21  92 CALM      30.16F
PEORIA         FAIR      23  18  81 E3        30.16F
6HR MIN TEMP:  22; 6HR MAX TEMP:  26;

LACON*         CLEAR     19  16  88 S3        30.17F
LINCOLN*       CLEAR     24  22  93 CALM      30.19R
SPRINGFIELD    CLEAR     26  22  84 SE3       30.16F
6HR MIN TEMP:  23; 6HR MAX TEMP:  29;

TAYLORVILLE    CLEAR     27  23  86 SE6       30.17S WCI  20
$$

ILZ033-039-045-046-055>057-062-063-260700-
EAST-CENTRAL ILLINOIS

CITY           SKY/WX    TMP DP  RH WIND       PRES   REMARKS
CHAMPAIGN      CLEAR     21  18  88 E7        30.17F WCI  12
DANVILLE*      CLOUDY    24  20  87 SE3       30.15F
MATTOON        CLEAR     25  22  88 CALM      30.16F
PARIS*         CLEAR     26  24  90 CALM      30.19F
$$

ILZ079-100>102-260700-
SOUTHWEST ILLINOIS

CITY           SKY/WX    TMP DP  RH WIND       PRES   REMARKS
ALTON          CLEAR     26  23  90 SE5       30.16F WCI  20
BELLEVILLE     CLEAR     25  24  99 CALM      30.16F
CAHOKIA*       CLEAR     28  24  85 SE5       30.16F WCI  23
SPARTA*        CLEAR     26  24  91 SE3       30.18S
$$

ILZ064>066-069>071-074>076-080>082-084>086-088>090-092>094-260700-
SOUTH-CENTRAL ILLINOIS

CITY           SKY/WX    TMP DP  RH WIND       PRES   REMARKS
CARBONDALE     CLEAR     23  20  88 CALM      30.18F FOG
6HR MIN TEMP:  23; 6HR MAX TEMP:  31;

CAIRO*         CLEAR     28  25  88 CALM      30.18F
EFFINGHAM*     CLEAR     24  21  89 CALM      30.18S
MARION         CLEAR     27  25  93 CALM      30.18F
MT. VERNON     CLEAR     23  18  80 CALM      30.18F
CENTRALIA*     CLEAR     26  23  89 CALM      30.17F
SALEM*           N/A     28  25  87 SE3       30.18S
METROPOLIS*    CLEAR     26  26 100 CALM        N/A  FOG
$$

ILZ067-068-072-073-078-083-087-091-260700-
SOUTHEAST ILLINOIS

CITY           SKY/WX    TMP DP  RH WIND       PRES   REMARKS
LAWRENCEVILLE  CLEAR     27  24  89 E5        30.19F WCI  22
FLORA*         CLEAR     24  24 100 CALM      30.19S
FAIRFIELD*     CLEAR     26  24  93 CALM      30.17F
HARRISBURG*    CLEAR     25  25  99 CALM      30.20S
ROBINSON*      CLEAR     26  22  87 NE3       30.20F
CARMI*         CLEAR     25  24  99 NE3       30.18F
$$

ABBREVIATIONS USED IN REMARKS
   TC - TEMPERATURE IN CELSIUS
  WCI - WIND CHILL INDEX
   HX - HEAT INDEX
  VSB - VISIBILITY
$$




USA.gov is the U.S. government's official web portal to all federal, state and local government web resources and services.